Wind_Speed
14 14 16 17 18 20 21 22 23 24 25 25 25 25 25 24 24 23 22 21 20 19 18 17 16 15 15 14 13 12 12 12 12 12 12 13 13 13 13 13 13 13
12 13 14 15 16 17 18 19 20 21 22 23 24 25 25 24 24 24 24 23 23 22 20 20 19 18 18 17 16 15 15 14 14 14 14 15 15 15 15 15 15 15
10 12 12 13 14 16 16 17 17 18 18 20 21 22 23 24 24 24 24 24 24 23 22 21 21 20 20 19 19 18 18 17 16 16 16 17 17 17 17 17 17 18
9 11 12 12 12 14 14 15 15 15 16 16 17 19 20 22 23 23 23 23 23 23 23 22 21 21 20 20 20 19 19 19 18 18 18 18 18 19 19 19 19 19
7 9 10 11 12 12 13 13 13 13 13 14 14 15 17 18 20 21 21 21 21 21 21 20 20 20 20 19 19 19 19 18 18 18 18 18 18 18 18 19 19 19
6 7 9 10 11 12 12 12 12 12 12 12 13 13 14 15 16 17 18 18 18 18 18 18 18 18 18 18 17 17 17 17 17 17 17 16 16 16 15 15 16 18
8 7 7 9 10 11 12 12 12 11 12 11 11 11 12 13 13 14 14 15 15 15 16 15 15 16 16 16 16 16 16 16 16 15 15 15 15 14 14 14 14 15
10 9 8 8 9 10 12 12 11 11 11 11 11 10 10 11 11 12 12 12 12 12 13 13 14 14 15 15 15 15 15 15 15 14 14 14 14 14 15 14 14 14
13 12 10 9 9 9 10 11 11 11 11 11 11 10 9 9 10 10 10 10 10 10 10 11 12 12 13 14 14 15 15 14 14 14 13 13 14 15 15 15 15 15
17 15 13 12 11 10 10 11 11 11 11 11 11 11 9 8 8 8 8 8 9 9 9 10 11 12 12 12 12 12 13 13 13 13 13 13 13 14 15 15 16 16
20 18 16 14 13 13 12 11 12 12 12 11 11 11 10 9 8 8 8 9 9 9 9 9 10 11 11 11 12 12 11 11 11 12 12 12 13 13 13 14 15 16
23 21 19 18 16 16 15 14 13 13 13 12 12 11 10 10 10 9 9 9 10 10 9 9 8 9 10 10 11 12 11 10 10 10 11 11 12 12 12 12 14 15
25 24 23 22 21 19 18 17 16 16 16 14 13 12 12 12 11 11 10 10 11 11 11 10 9 8 9 9 9 10 10 11 11 11 11 11 11 11 11 11 11 12
28 27 27 26 24 22 20 20 19 19 19 18 16 15 14 14 14 12 12 12 11 12 13 13 12 10 10 10 10 10 9 10 11 11 11 12 12 13 12 10 9 9
31 30 30 29 27 25 23 22 21 21 22 22 20 18 17 16 16 15 14 14 13 13 14 15 15 14 13 12 12 11 10 9 10 10 10 11 13 14 14 13 11 9
34 34 33 32 30 28 27 25 24 24 25 24 23 22 20 19 18 18 17 16 16 15 15 16 18 17 17 16 16 14 12 11 10 9 9 10 11 13 15 15 14 12
35 36 36 36 34 32 30 28 27 26 26 27 26 25 23 22 20 20 20 19 19 18 18 19 20 20 19 20 20 18 17 14 12 11 11 11 12 13 14 15 15 15
32 35 36 36 36 36 34 32 31 28 27 28 28 27 26 24 23 22 23 22 22 21 21 23 24 23 22 22 22 21 20 19 16 15 14 15 14 13 14 15 15 15
34 36 37 35 37 38 37 35 34 30 28 28 28 28 28 27 26 25 25 25 24 23 25 27 28 26 24 24 24 24 24 23 21 20 18 18 18 17 16 17 16 15
41 41 41 40 41 41 39 38 36 32 30 29 27 27 27 27 29 30 28 27 26 25 29 31 30 28 27 26 26 26 26 26 26 24 22 21 21 21 21 20 18 17
48 48 47 44 43 42 41 41 39 35 33 31 27 25 25 28 33 34 31 29 28 28 31 33 30 28 28 28 28 28 28 29 29 28 27 24 23 24 24 23 20 20
51 51 51 49 47 45 43 42 41 39 37 34 29 26 27 32 37 38 36 33 32 31 34 34 32 29 28 28 30 30 30 30 30 30 30 28 27 28 28 27 25 24
54 53 54 53 51 49 48 47 47 45 44 41 36 33 35 39 42 43 41 39 36 35 36 37 37 35 33 31 31 31 31 31 32 32 32 31 32 31 31 31 30 28
57 57 57 57 56 55 56 55 53 51 49 47 44 42 43 46 48 48 46 44 42 40 40 41 42 41 38 36 35 34 34 35 35 35 35 34 35 35 35 34 33 32
58 56 57 59 60 60 58 56 54 53 52 51 50 49 50 53 54 54 52 48 45 44 44 44 45 44 42 41 39 39 39 39 40 40 39 37 38 39 39 38 37 35
64 59 57 60 65 66 64 62 59 57 57 57 57 56 57 58 58 56 53 48 45 46 46 46 47 48 47 45 43 43 43 43 43 43 43 42 42 42 42 42 41 37
Wind_Direction
41 38 37 40 44 49 53 57 60 61 62 62 63 63 63 64 64 64 65 65 65 66 67 68 69 68 68 69 70 71 71 72 70 68 68 69 68 66 66 66 65 64
40 37 33 34 36 40 44 49 54 57 60 60 61 62 61 61 62 62 63 63 63 64 65 66 67 68 69 68 68 68 68 69 68 67 67 68 68 66 64 63 64 64
35 36 34 32 30 31 35 40 45 49 54 58 59 59 59 59 58 58 60 61 61 61 61 62 64 66 67 68 68 68 68 69 68 67 65 65 65 64 63 62 62 61
24 31 33 32 28 24 26 30 35 40 45 50 55 57 58 59 57 56 56 58 59 58 58 57 58 59 61 63 64 65 66 68 68 67 65 64 64 63 61 61 60 59
9 20 24 26 25 22 20 19 23 30 35 39 45 51 55 57 57 56 55 56 57 57 56 54 53 53 54 55 56 57 58 59 61 62 61 61 61 61 59 56 56 55
343 1 10 14 15 15 15 13 12 15 22 28 32 39 47 52 54 54 54 54 54 53 52 51 50 50 50 50 50 51 51 51 52 53 52 53 55 57 56 54 52 52
308 328 347 359 4 3 4 6 6 6 8 15 21 25 34 42 47 49 51 52 51 51 49 46 44 45 45 47 47 48 49 48 48 46 43 43 45 46 48 47 46 46
287 300 315 330 346 352 353 354 357 358 356 1 8 12 19 26 33 40 43 45 46 45 43 42 40 41 41 42 43 43 43 44 46 45 40 37 38 37 37 37 36 36
278 285 293 302 317 333 339 339 342 346 345 346 350 352 359 9 12 20 29 31 33 36 35 33 33 34 35 38 38 37 37 37 37 38 36 35 36 35 34 32 30 28
272 276 279 284 294 305 316 323 326 329 331 333 336 336 339 344 349 355 5 9 10 17 23 24 24 23 23 25 26 27 30 32 31 29 27 28 31 33 33 32 30 28
265 269 271 275 280 286 292 301 308 312 313 314 318 324 325 323 325 330 339 344 347 353 0 8 14 18 17 15 13 12 10 15 16 15 15 16 18 24 29 31 32 32
261 262 264 268 273 276 279 283 289 292 293 297 301 306 311 311 310 310 316 324 331 333 336 340 348 1 7 7 7 7 0 352 349 350 355 358 360 6 15 22 27 32
259 257 258 263 267 269 271 273 274 276 277 279 284 287 292 298 300 300 301 307 318 322 319 318 320 332 345 347 349 357 355 347 342 341 343 341 337 341 352 2 12 23
257 253 254 258 263 264 265 266 266 266 267 267 270 272 276 283 289 292 293 294 303 311 311 310 309 312 321 325 327 335 340 339 339 339 339 336 329 327 331 336 348 6
254 252 252 254 259 260 260 261 261 260 260 260 261 264 265 272 278 281 284 286 291 299 304 305 305 305 306 308 313 319 322 323 326 328 330 332 329 327 326 325 327 337
254 253 253 253 255 258 257 256 257 257 257 256 256 259 262 266 272 274 275 279 282 286 291 295 298 299 298 297 300 303 305 306 308 312 313 315 321 325 326 326 325 324
254 255 256 254 254 256 257 256 254 254 256 255 253 255 258 263 268 272 272 273 276 280 282 283 286 288 288 290 291 291 292 294 293 294 295 298 306 313 319 324 326 325
250 252 256 257 256 255 255 254 254 254 256 256 254 253 256 259 264 271 274 275 278 280 279 278 280 283 283 284 284 284 285 287 285 283 285 287 290 295 303 312 315 318
250 248 249 251 252 254 253 253 257 259 259 261 260 257 257 259 263 269 274 277 280 280 278 278 280 283 283 281 280 280 281 282 281 280 282 283 285 288 289 293 299 306
246 245 246 248 251 254 256 258 261 261 261 265 266 262 261 262 264 267 270 272 276 278 277 276 278 282 285 285 283 280 278 278 279 280 280 280 283 283 282 284 291 296
241 240 242 247 250 253 256 259 262 261 261 262 261 256 254 255 256 262 267 271 276 277 275 275 279 282 284 284 283 280 277 276 276 277 278 278 278 277 277 278 281 283
245 243 242 245 248 250 252 256 259 260 260 260 257 250 248 252 256 262 267 270 273 273 272 275 281 281 280 280 281 280 276 273 273 273 274 274 274 274 275 276 275 275
247 248 246 246 248 249 252 254 256 256 256 258 256 249 248 254 259 263 265 267 269 268 268 272 277 277 276 277 278 278 277 275 272 271 271 271 271 272 273 275 275 274
245 249 248 246 246 250 252 254 254 254 255 257 255 248 247 253 258 262 264 265 266 265 265 267 270 270 271 270 270 271 274 276 274 271 270 270 270 270 270 271 272 273
242 246 249 245 243 245 248 251 253 255 255 256 255 251 251 255 259 262 263 263 263 263 264 266 267 267 267 266 266 266 268 270 272 272 271 270 269 268 268 267 268 269
238 240 244 244 242 242 244 248 252 255 255 254 254 255 257 259 260 261 260 259 260 261 263 265 266 266 265 264 265 265 265 266 268 268 269 270 269 267 266 266 267 269
Height
11025 11024 11023 11023 11022 11021 11020 11019 11018 11017 11016 11015 11013 11013 11012 11011 11011 11010 11010 11009 11009 11008 11007 11007 11006 11006 11005 11005 11004 11004 11004 11003 11003 11003 11002 11002 11001 11001 11000 11000 11000 10999
11027 11026 11025 11024 11023 11023 11022 11021 11020 11019 11018 11017 11016 11015 11014 11014 11013 11013 11012 11012 11011 11011 11010 11009 11009 11008 11007 11007 11007 11006 11006 11006 11005 11005 11005 11004 11003 11003 11003 11002 11002 11001
11028 11028 11027 11026 11025 11024 11023 11023 11022 11022 11021 11020 11019 11018 11017 11016 11016 11015 11015 11014 11013 11013 11012 11012 11011 11011 11010 11010 11009 11009 11009 11008 11008 11008 11007 11006 11006 11005 11005 11004 11004 11003
11030 11029 11028 11027 11026 11026 11025 11025 11024 11024 11023 11022 11021 11020 11020 11019 11018 11018 11017 11016 11015 11015 11014 11014 11013 11013 11012 11012 11012 11011 11011 11011 11010 11010 11009 11008 11008 11007 11007 11006 11006 11005
11031 11030 11030 11029 11028 11028 11027 11027 11026 11025 11025 11024 11024 11023 11022 11021 11020 11020 11019 11018 11018 11017 11016 11016 11015 11015 11014 11014 11014 11013 11013 11012 11012 11011 11011 11010 11010 11009 11008 11008 11007 11006
11032 11032 11031 11031 11030 11029 11029 11029 11028 11027 11026 11026 11025 11025 11024 11023 11022 11022 11021 11021 11020 11019 11019 11018 11018 11017 11016 11016 11016 11015 11015 11014 11014 11013 11013 11012 11011 11011 11010 11009 11009 11008
11032 11032 11032 11032 11031 11031 11030 11030 11029 11028 11027 11027 11026 11026 11025 11025 11024 11024 11023 11023 11022 11021 11021 11020 11020 11019 11019 11018 11018 11017 11016 11016 11015 11015 11014 11014 11013 11012 11012 11011 11010 11009
11033 11033 11033 11032 11032 11031 11031 11031 11030 11029 11029 11028 11027 11027 11027 11026 11025 11025 11024 11024 11024 11023 11022 11022 11021 11021 11021 11020 11020 11019 11018 11018 11017 11017 11016 11015 11015 11014 11013 11012 11012 11011
11033 11033 11033 11032 11032 11032 11031 11031 11030 11030 11029 11029 11028 11028 11027 11027 11026 11026 11025 11025 11024 11024 11024 11023 11022 11022 11022 11022 11021 11021 11020 11019 11019 11018 11017 11017 11016 11015 11014 11013 11013 11012
11032 11032 11032 11032 11032 11031 11031 11030 11030 11030 11029 11029 11028 11028 11027 11026 11026 11026 11026 11025 11025 11025 11024 11024 11024 11023 11023 11023 11022 11022 11021 11021 11020 11019 11019 11018 11017 11016 11015 11014 11013 11012
11031 11031 11031 11031 11031 11030 11030 11029 11029 11029 11028 11028 11027 11027 11026 11026 11025 11025 11025 11025 11025 11025 11025 11024 11024 11024 11023 11023 11023 11023 11022 11021 11021 11020 11020 11019 11018 11018 11016 11015 11014 11013
11029 11029 11029 11029 11029 11028 11028 11028 11027 11027 11027 11026 11026 11026 11025 11024 11024 11024 11024 11024 11024 11024 11024 11024 11024 11024 11023 11023 11023 11023 11022 11022 11021 11021 11020 11020 11019 11018 11018 11016 11015 11014
11026 11026 11026 11025 11025 11026 11026 11025 11025 11025 11024 11024 11024 11024 11023 11022 11022 11022 11022 11023 11023 11024 11024 11024 11024 11023 11023 11023 11022 11022 11022 11022 11021 11021 11021 11020 11019 11019 11018 11017 11016 11015
11022 11022 11021 11021 11021 11022 11022 11023 11023 11022 11022 11021 11021 11021 11021 11020 11020 11021 11021 11021 11022 11022 11023 11023 11023 11023 11023 11022 11022 11022 11022 11022 11021 11021 11021 11020 11019 11019 11018 11018 11017 11016
11019 11018 11017 11017 11017 11018 11018 11019 11019 11019 11018 11019 11019 11019 11019 11019 11019 11019 11019 11019 11020 11020 11021 11021 11021 11021 11022 11022 11021 11021 11021 11021 11021 11021 11021 11020 11019 11018 11018 11017 11017 11016
11015 11014 11014 11013 11013 11013 11014 11015 11016 11016 11015 11016 11017 11017 11017 11017 11017 11017 11017 11017 11017 11018 11019 11019 11019 11019 11020 11020 11020 11020 11020 11020 11020 11020 11020 11020 11019 11018 11017 11017 11016 11016
11011 11010 11009 11008 11009 11009 11010 11011 11012 11012 11013 11013 11014 11015 11015 11015 11015 11015 11015 11015 11015 11016 11016 11016 11016 11017 11017 11018 11018 11018 11019 11019 11019 11019 11019 11019 11019 11018 11017 11016 11016 11015
11006 11004 11002 11002 11002 11003 11004 11006 11007 11009 11011 11011 11011 11012 11012 11012 11012 11012 11012 11012 11013 11014 11014 11013 11012 11014 11015 11015 11015 11016 11017 11017 11018 11018 11018 11018 11017 11017 11017 11016 11015 11015
11003 10999 10997 10996 10995 10995 10998 11002 11004 11007 11009 11008 11009 11010 11009 11009 11009 11008 11009 11009 11010 11011 11011 11009 11009 11011 11012 11012 11013 11013 11014 11015 11016 11016 11016 11016 11016 11016 11016 11015 11015 11015
10997 10994 10992 10992 10992 10993 10996 10999 11001 11004 11006 11006 11007 11007 11007 11007 11004 11003 11004 11005 11006 11008 11006 11005 11006 11008 11009 11010 11010 11011 11012 11012 11013 11014 11014 11014 11015 11014 11013 11013 11013 11014
10989 10988 10988 10990 10991 10993 10994 10996 10998 11000 11001 11002 11004 11004 11004 11002 10997 10996 11000 11002 11003 11004 11002 11000 11003 11006 11006 11007 11007 11008 11009 11009 11010 11011 11011 11012 11012 11011 11011 11011 11012 11012
10980 10983 10986 10988 10989 10991 10992 10992 10994 10996 10997 10998 11001 11001 11001 10997 10991 10991 10996 10999 11000 11000 10998 10998 11000 11002 11003 11003 11003 11004 11005 11006 11007 11008 11008 11009 11009 11008 11008 11008 11009 11009
10974 10977 10983 10987 10988 10989 10988 10986 10988 10990 10991 10994 10998 11000 10998 10992 10987 10988 10991 10994 10996 10996 10995 10995 10996 10998 10999 11000 11000 11000 11000 11002 11003 11004 11004 11005 11005 11005 11005 11005 11005 11006
10974 10975 10978 10983 10987 10986 10981 10978 10980 10983 10986 10989 10992 10995 10994 10989 10984 10984 10987 10989 10991 10992 10992 10991 10992 10993 10995 10995 10995 10996 10996 10997 10998 10999 11000 11001 11001 11001 11001 11002 11002 11002
10975 10974 10973 10975 10978 10977 10971 10970 10973 10977 10980 10983 10985 10987 10987 10985 10981 10982 10983 10985 10986 10987 10987 10987 10987 10988 10989 10990 10990 10991 10992 10993 10993 10994 10995 10996 10996 10997 10997 10997 10997 10998
10970 10970 10967 10965 10965 10967 10966 10967 10970 10973 10975 10977 10978 10979 10979 10978 10977 10978 10979 10979 10981 10982 10982 10982 10982 10982 10983 10984 10985 10985 10986 10987 10988 10989 10990 10991 10991 10992 10992 10992 10993 10995